Regional Weather Roundup
Issued by NWS New Orleans/Baton Rouge, LA

Home | Current Version | Previous Version | Text Only | Print | Product List | Glossary On
Versions: 1 2 3 4 5 6 7 8 9 10 11 12 13 14 15 16 17 18 19 20 21 22 23 24 25 26 27 28 29 30 31 32 33 34 35 36 37 38 39 40 41 42 43 44 45 46 47 48 49 50
931
ASUS44 KLIX 300410
RWRLIX
NEW ORLEANS REGIONAL WEATHER ROUNDUP
NATIONAL WEATHER SERVICE NEW ORLEANS LA
1100 PM CDT FRI AUG 29 2014

NOTE: "FAIR" INDICATES FEW OR NO CLOUDS BELOW 12,000 FEET WITH NO
      SIGNIFICANT WEATHER AND/OR OBSTRUCTIONS TO VISIBILITY.
      SKY/WX - SKY CONDITION AND SIGNIFICANT WEATHER.
      TMP - AIR TEMPERATURE.     DP    - DEWPOINT TEMPERATURE.
      RH  - RELATIVE HUMIDITY.   PRES  - PRESSURE.
      HI  - HEAT INDEX.          WCI   - WIND CHILL INDEX.

*  THESE STATIONS ARE NOT NWS OR FAA STATIONS AND ARE NOT UNDER
   NWS QUALITY CONTROL.

LAZ038-040-048-061>063-065>067-069-300500-
SOUTHEAST LOUISIANA

CITY           SKY/WX    TMP DP  RH WIND       PRES   REMARKS
N.O. AUDUBON     N/A     78  74  86 MISG        N/A
N.O. INTL ARPT CLOUDY    77  71  82 SE6       30.01R
N.O. LAKEFRONT CLOUDY    79  74  84 SE10      30.02R
N.O. DOWNTOWN*   N/A     79  70  73 SE5       30.02R
SLIDELL        CLOUDY    78  75  90 CALM      30.01S
BATON ROUGE    CLOUDY    77  73  87 E6        30.00R
BOOTHVILLE     CLOUDY    79  77  94 SE6       30.04R
BELLE CHASSE   CLOUDY    79  73  82 SE6       30.01R
BOGALUSA*        N/A     78  73  85 S5        30.03S
GALLIANO*      NOT AVBL
NEW ROADS*       N/A     76  73  90 SE7       30.00R
GONZALES*        N/A     76  76 100 SE3       30.00R
HAMMOND*       CLOUDY    77  73  88 CALM      30.03R
HOUMA*         CLOUDY    75  73  92 CALM      30.00S
PORT FOURCHON* PTCLDY    81  73  78 SE9G18    30.04R

$$

MSZ070-080>082-300500-
SOUTHERN MISSISSIPPI

CITY           SKY/WX    TMP DP  RH WIND       PRES   REMARKS
MCCOMB         CLOUDY    74  72  93 S8        30.03R
GULFPORT       CLOUDY    81  77  88 SE14      30.00S
BILOXI         CLOUDY    81  76  85 S10       30.01R
PASCAGOULA     CLOUDY    77  75  93 SE8       30.03R

$$

COASTAL OBSERVATIONS
LAKE AND NEARSHORE STATIONS

STATION/POSITION TIME  TEMP    WIND        PRES    WAVE
                       AIR SEA DIR/SP/G            HT/PER
                 (UTC) (F)     (DEG/KT/KT) (MB)    (FT/S)
PASCAGOULA       0400   81     130/ 11/ 14 1016.5
WAVELAND YACHT   0400   83     160/ 13/ 16 1015.5
GRAND ISLE       0400   81 84  140/  6/ 11 1017.4
SOUTHWEST PASS   0400   81 88  120/ 12/ 15 1017.6
NEW CANAL        0400   79 83  140/  5/  7 1016.6
SHELL BEACH      0400   80 81  130/  8/ 10 1016.3

OFFSHORE STATIONS

STATION/POSITION TIME  TEMP    WIND        PRES    WAVE
                       AIR SEA DIR/SP/G            HT/PER
                 (UTC) (F)     (DEG/KT/KT) (MB)    (FT/S)
64 S DAUPHIN ISL 0253   82 85  150/  8/  8 1017.9

$$




USA.gov is the U.S. government's official web portal to all federal, state and local government web resources and services.